sat.trackr.live / text

‹ back to catalog

ANSER LEADER-S

NORAD 62644 · 2025-009AM

PAYLOAD ACTIVE UNKNOWN

§ Identity

Operator
Country
SPN
Launch date
2025-01-14
Launch site
AFWTR
Launch vehicle
Mass (kg)
RCS (m²)

External: N2YO · Heavens-Above · Gunter

§ Orbital elements

Epoch: 2026-05-24T19:22:45.079680Z

Period
93.24 min
Inclination
97.4018°
Eccentricity
0.0002386
Mean motion
15.44397173 rev/d
Perigee alt
431.5 km
Apogee alt
434.8 km
Semi-major
6,811.3 km
B*
1.2519e-3
RAAN
230.9752°
Arg perigee
63.8375°
Mean anomaly
296.3118°
Rev number
7,559

§ Raw data

ANSER LEADER-S1 62644U 25009AM  26144.80746620  .00058095  00000+0  12519-2 0  99942 62644  97.4018 230.9752 0002386  63.8375 296.3118 15.44397173 75592

JSON: /api/v1/satellites/62644 · /tle

For live sub-satellite position, see the globe view (requires WebGL).

§ Visibility from observer

Set your observer location to see the next 7 days of passes ≥ 10°. The values pass through the URL so the page stays shareable.

No JS? Fill the form by hand. The geolocation button needs JavaScript.